[[{"header":{"parameterUnit":"m.s-1","parameterCategory":2,"la1":30.2991,"la2":30.254,"lo1":-89.0895,"lo2":-89.0444,"dy":0.0017,"dx":0.0017,"nx":28,"ny":28,"refTime":"2023-08-30T03:00:00:Z","depth":"0","parameterNumber":2,"parameterNumberName":"U-component_of_CURRENTS"},"data":[0,0,0,0,0,0,0,0,0,0,0,0,0,0,0,0,0,0,0,0,0,0,0,0,0,0,0,0,0,0,0,0,0,0,0,0,0,0,0,0,0,0,0,0,0,0,0,0,0,0,0,0,0,0,0,0,0,0,0.2718,0.2718,0,0.2746,0.2746,0.2746,0.2738,0.2737,0.2737,0.2737,0.2721,0.2721,0.2721,0,0,0,0,0,0,0,0,0,0,0,0,0,0.266,0.2661,0.2717,0.2718,0.2719,0.2746,0.2746,0.2746,0.2738,0.2737,0.2737,0.2737,0.2721,0.2721,0.2721,0,0,0,0,0,0,0,0,0,0,0,0,0,0.2683,0.2661,0.2717,0.272,0.2721,0.2746,0.2746,0.2746,0.2738,0.2737,0.2737,0.2736,0.2721,0.2721,0.2721,0.2728,0,0,0.272,0.272,0,0,0,0,0,0,0,0,0.2682,0.2685,0.2719,0.272,0.2721,0.2741,0.272,0.2739,0.2738,0.2728,0.2737,0.2736,0.2726,0.2725,0.2728,0.2727,0.2726,0.272,0.272,0.272,0.272,0,0,0,0,0,0,0,0.268,0.2683,0.2725,0.272,0.2721,0.2722,0.2724,0.2724,0.2726,0.2729,0.2729,0.2738,0.2726,0.2728,0.2727,0.2726,0.272,0.272,0.272,0.272,0.2755,0.2756,0,0,0,0,0,0,0.2684,0.2682,0.2724,0.2727,0.2704,0.2723,0.2726,0.2732,0.2727,0.2727,0.2738,0.2737,0.2728,0.2727,0.2726,0.2749,0.272,0.272,0.2719,0.2754,0.2756,0.2757,0,0,0,0,0,0,0.2682,0.2687,0.2723,0.2708,0.2713,0.2725,0.2732,0.2733,0.274,0.2735,0.2733,0.2745,0.2728,0.2727,0.2732,0.2747,0.2719,0.2719,0.2753,0.2755,0.2756,0.2784,0,0,0,0,0,0,0.268,0.2686,0.2691,0.2708,0.2714,0.2745,0.2733,0.2734,0.2747,0.2746,0.274,0.2738,0.2728,0.2733,0.2732,0.2747,0.2719,0.2752,0.2754,0.2756,0.2782,0.2786,0.279,0,0,0,0,0,0.2678,0.2686,0.2691,0.2696,0.272,0.2746,0.2749,0.2754,0.2748,0.2757,0.2751,0.2738,0.2746,0.2733,0.2732,0.2747,0.2751,0.2753,0.2756,0.278,0.2786,0.279,0,0,0,0,0,0,0.2655,0.2687,0.2692,0.2707,0.2729,0.2746,0.2756,0.276,0.2763,0.2761,0.2748,0.2746,0.2761,0.2752,0.2739,0.2766,0.2748,0.275,0.2767,0.2772,0.2776,0.2782,0.2719,0,0,0,0,0,0.2656,0.2673,0.2701,0.2713,0.2727,0.2743,0.2753,0.2761,0.2769,0.277,0.2764,0.2763,0.2771,0.2769,0.2774,0.2782,0.2788,0.2794,0.2798,0.2802,0.2807,0.2831,0.2838,0.2765,0.2765,0.2765,0,0,0.2647,0.267,0.2676,0.271,0.2726,0.2749,0.2747,0.2771,0.2785,0.2768,0.2777,0.278,0.2779,0.2793,0.2799,0.2784,0.2827,0.2805,0.2808,0.2811,0.2834,0.2841,0.2848,0.2767,0.2766,0.2766,0,0,0.2644,0.2663,0.268,0.2705,0.2742,0.2757,0.2767,0.2791,0.2796,0.2809,0.2807,0.2819,0.2818,0.2826,0.2828,0.286,0.2855,0.2864,0.2881,0.2905,0.2911,0.2916,0.2937,0.2944,0.2859,0.2859,0.2859,0,0.2631,0.2658,0.2687,0.2714,0.2732,0.2762,0.2781,0.2799,0.2818,0.2825,0.2815,0.2838,0.2835,0.2861,0.2873,0.287,0.2882,0.2858,0.291,0.2915,0.292,0.294,0.2948,0.286,0.286,0.286,0.286,0,0.2647,0.2669,0.2684,0.2727,0.2749,0.2775,0.2808,0.2831,0.2838,0.2849,0.2876,0.2879,0.2892,0.2897,0.2891,0.2931,0.2928,0.2917,0.2894,0.2929,0.2948,0.2956,0.2863,0.2862,0.2862,0.2861,0,0,0.2609,0.268,0.2683,0.2701,0.2759,0.2774,0.2814,0.2849,0.2873,0.2889,0.291,0.293,0.2937,0.2942,0.2946,0.2963,0.3008,0.2955,0.2955,0.2972,0.3063,0.3073,0.3082,0.3005,0.3006,0.3008,0.3064,0,0.2609,0.2651,0.2689,0.2721,0.2743,0.2789,0.2816,0.2853,0.2885,0.2917,0.2937,0.296,0.2954,0.2965,0.2986,0.3011,0.3028,0.2994,0.3031,0.3032,0.3033,0.3091,0.303,0.3076,0.3071,0.3072,0.3073,0,0.2608,0.2639,0.2666,0.2716,0.2729,0.275,0.2804,0.284,0.2905,0.2929,0.297,0.299,0.3035,0.3015,0.3076,0.3056,0.3064,0.3073,0.3075,0.308,0.3056,0.304,0.3089,0.303,0.3084,0.3083,0.3082,0,0.2558,0.2617,0.2633,0.2653,0.2716,0.2731,0.2768,0.2834,0.2876,0.2948,0.2983,0.3032,0.3071,0.3092,0.313,0.3103,0.3193,0.3154,0.3168,0.3168,0.3121,0.3116,0.3113,0.3186,0.3186,0.3186,0.3186,0,0.254,0.2552,0.2609,0.2619,0.2637,0.2694,0.2729,0.2785,0.287,0.2916,0.2986,0.3041,0.3094,0.3153,0.3157,0.3209,0.322,0.3191,0.3192,0.313,0.3125,0.3075,0.3028,0.3188,0.3188,0.3187,0.3187,0,0.248,0.2523,0.2545,0.2601,0.2614,0.2629,0.2709,0.2738,0.2838,0.291,0.2935,0.3067,0.3155,0.3209,0.3265,0.3257,0.3208,0.3292,0.3223,0.3216,0.3153,0.311,0.2975,0.2885,0.3308,0.3308,0.3309,0,0.2454,0.2459,0.2511,0.2515,0.2537,0.2572,0.2589,0.27,0.2744,0.2919,0.2941,0.3084,0.3164,0.3289,0.332,0.3357,0.3235,0.3296,0.3228,0.3163,0.3115,0.2957,0.2879,0.3175,0.3174,0.3174,0.3173,0,0.2395,0.2414,0.2425,0.2441,0.2454,0.2481,0.2526,0.2564,0.2695,0.279,0.292,0.3015,0.3181,0.3236,0.3325,0.3325,0.3155,0.3287,0.3233,0.3033,0.2845,0.2756,0.3124,0.3169,0.317,0.317,0.317,0.3171,0.2335,0.2332,0.2345,0.2353,0.2363,0.2374,0.2373,0.2444,0.2531,0.2649,0.2813,0.2935,0.3113,0.3254,0.3233,0.3208,0.3133,0.3131,0.3093,0.2944,0.2827,0.3197,0.3236,0.3237,0.3238,0.3238,0.3239,0,0.2264,0.2261,0.2255,0.2255,0.2226,0.2275,0.2305,0.23,0.2357,0.2531,0.2648,0.2857,0.2954,0.3056,0.3137,0.3043,0.2864,0.296,0.2722,0.266,0.3022,0.2989,0.2961,0.2961,0.2961,0.2961,0.2961,0.2961,0.2224,0.2191,0.2192,0.212,0.2111,0.2072,0.2076,0.2094,0.2191,0.2322,0.2456,0.2595,0.2851,0.3005,0.2971,0.2896,0.2652,0.2554,0.2498,0.2782,0.2794,0.2805,0.2765,0.269,0.2689,0.2045,0.204,0.2036]},{"header":{"parameterUnit":"m.s-1","parameterCategory":2,"la1":30.2991,"la2":30.254,"lo1":-89.0895,"lo2":-89.0444,"dy":0.0017,"dx":0.0017,"nx":28,"ny":28,"refTime":"2023-08-30T03:00:00:Z","depth":"0","parameterNumber":3,"parameterNumberName":"V-component_of_CURRENTS"},"data":[0,0,0,0,0,0,0,0,0,0,0,0,0,0,0,0,0,0,0,0,0,0,0,0,0,0,0,0,0,0,0,0,0,0,0,0,0,0,0,0,0,0,0,0,0,0,0,0,0,0,0,0,0,0,0,0,0,0,-0.0184,-0.0184,0,-0.0229,-0.023,-0.023,-0.0267,-0.0267,-0.0267,-0.0268,-0.0348,-0.035,-0.0351,0,0,0,0,0,0,0,0,0,0,0,0,0,-0.0179,-0.0179,-0.0184,-0.0185,-0.0185,-0.0229,-0.023,-0.0231,-0.0267,-0.0267,-0.0267,-0.0268,-0.0347,-0.0349,-0.0352,0,0,0,0,0,0,0,0,0,0,0,0,0,-0.0199,-0.0179,-0.0184,-0.0208,-0.021,-0.0229,-0.023,-0.0231,-0.0267,-0.0267,-0.0268,-0.0268,-0.0346,-0.0349,-0.0352,-0.0361,0,0,-0.036,-0.0362,0,0,0,0,0,0,0,0,-0.0198,-0.0199,-0.0204,-0.0206,-0.0209,-0.0242,-0.0257,-0.0276,-0.0267,-0.0246,-0.0268,-0.0268,-0.0315,-0.032,-0.0329,-0.0365,-0.0368,-0.0361,-0.0362,-0.0364,-0.0364,0,0,0,0,0,0,0,-0.0196,-0.0198,-0.0203,-0.0204,-0.0207,-0.0233,-0.0236,-0.0261,-0.0279,-0.0248,-0.0251,-0.0254,-0.0317,-0.0326,-0.0331,-0.0369,-0.0361,-0.0363,-0.0365,-0.0366,-0.0409,-0.0408,0,0,0,0,0,0,-0.0186,-0.0196,-0.0201,-0.0204,-0.0203,-0.0232,-0.0236,-0.0232,-0.0278,-0.0285,-0.0253,-0.0255,-0.0321,-0.0327,-0.0334,-0.0329,-0.0364,-0.0366,-0.0368,-0.0409,-0.0409,-0.0408,0,0,0,0,0,0,-0.0185,-0.0185,-0.02,-0.0201,-0.0205,-0.0232,-0.0227,-0.0232,-0.0239,-0.0282,-0.0289,-0.0254,-0.0321,-0.033,-0.0346,-0.0333,-0.0368,-0.037,-0.041,-0.0409,-0.0408,-0.0332,0,0,0,0,0,0,-0.0185,-0.0185,-0.0179,-0.02,-0.0204,-0.02,-0.0227,-0.0233,-0.024,-0.0243,-0.0285,-0.0293,-0.0322,-0.0341,-0.0349,-0.0338,-0.0372,-0.0411,-0.0409,-0.0408,-0.0335,-0.0329,-0.0323,0,0,0,0,0,-0.0184,-0.0168,-0.0179,-0.0179,-0.0195,-0.0199,-0.0204,-0.0226,-0.0239,-0.0235,-0.0262,-0.0291,-0.034,-0.0343,-0.0352,-0.0342,-0.0411,-0.041,-0.0409,-0.0338,-0.033,-0.0323,0,0,0,0,0,0,-0.0157,-0.0171,-0.0183,-0.0171,-0.0181,-0.0205,-0.0204,-0.0219,-0.0238,-0.024,-0.0284,-0.0293,-0.0305,-0.0332,-0.0334,-0.0351,-0.0381,-0.0381,-0.0324,-0.0317,-0.0311,-0.029,-0.0375,0,0,0,0,0,-0.0149,-0.0144,-0.0161,-0.0151,-0.0155,-0.0179,-0.0185,-0.0196,-0.0215,-0.0223,-0.0254,-0.0284,-0.0307,-0.0318,-0.0346,-0.0351,-0.0381,-0.0351,-0.0345,-0.034,-0.0329,-0.0362,-0.0358,-0.0404,-0.0404,-0.0404,0,0,-0.0137,-0.0143,-0.0141,-0.0146,-0.0158,-0.0147,-0.0183,-0.0181,-0.0172,-0.0229,-0.023,-0.0267,-0.0305,-0.0313,-0.0321,-0.0333,-0.0342,-0.0338,-0.0333,-0.0325,-0.036,-0.0356,-0.0352,-0.0403,-0.0403,-0.0403,0,0,-0.0102,-0.0113,-0.0097,-0.0103,-0.0112,-0.0121,-0.0117,-0.0137,-0.0146,-0.0152,-0.019,-0.0213,-0.0251,-0.0272,-0.0288,-0.0264,-0.0312,-0.0277,-0.0226,-0.0257,-0.0254,-0.0251,-0.0282,-0.0282,-0.027,-0.027,-0.027,0,-0.0086,-0.0067,-0.0092,-0.0078,-0.0072,-0.0103,-0.0077,-0.009,-0.0113,-0.0115,-0.0142,-0.0193,-0.0229,-0.0233,-0.0225,-0.0249,-0.0277,-0.0248,-0.0249,-0.0246,-0.0245,-0.0277,-0.0279,-0.0266,-0.0266,-0.0267,-0.0267,0,-0.0043,-0.0028,-0.0017,-0.0008,-0.0003,0.0013,-0.0002,-0.0005,-0.0023,-0.0041,-0.0058,-0.011,-0.0138,-0.0156,-0.0183,-0.0185,-0.0212,-0.024,-0.0264,-0.0235,-0.0272,-0.0274,-0.0261,-0.0262,-0.0263,-0.0264,0,0,0.0001,0.0012,0.0018,0.0036,0.0038,0.0051,0.0066,0.0074,0.0087,0.0045,0.0054,0.0005,-0.0032,-0.0052,-0.0096,-0.0123,-0.0139,-0.0169,-0.0172,-0.0193,-0.021,-0.0209,-0.0213,-0.017,-0.017,-0.017,-0.0239,0,0.0047,0.0094,0.0089,0.014,0.0166,0.0146,0.0168,0.0166,0.0149,0.0144,0.0085,0.0071,0.0011,-0.0002,-0.0038,-0.0112,-0.0144,-0.0118,-0.024,-0.0243,-0.0241,-0.0215,-0.0175,-0.0231,-0.0242,-0.0243,-0.0243,0,0.0096,0.0123,0.0184,0.022,0.0231,0.0256,0.0286,0.0298,0.0277,0.0264,0.0231,0.0175,0.0134,0.0073,-0.0034,-0.0015,-0.0102,-0.0168,-0.0172,-0.0198,-0.0247,-0.0263,-0.0237,-0.0393,-0.0249,-0.0248,-0.0248,0,0.0148,0.0193,0.025,0.0259,0.0293,0.0317,0.0333,0.0333,0.036,0.0335,0.0345,0.0271,0.0245,0.013,-0.0005,-0.0023,-0.0128,-0.0174,-0.0257,-0.0259,-0.026,-0.0261,-0.0391,-0.0254,-0.0254,-0.0254,-0.0253,0,0.0203,0.0243,0.0277,0.0303,0.0379,0.0372,0.044,0.044,0.0453,0.0504,0.0409,0.0427,0.0258,0.0172,0.0031,-0.0107,-0.0103,-0.0238,-0.0271,-0.0233,-0.023,-0.0396,-0.0473,-0.0256,-0.0256,-0.0255,-0.0255,0,0.025,0.0268,0.0334,0.0381,0.0406,0.0455,0.0521,0.0561,0.0561,0.0621,0.0619,0.0549,0.0445,0.0268,0.0088,-0.0043,-0.0269,-0.0248,-0.0187,-0.0212,-0.0435,-0.0507,-0.066,-0.0731,-0.035,-0.0351,-0.0351,0,0.0276,0.0316,0.0397,0.0447,0.0472,0.0542,0.0597,0.0621,0.0676,0.0709,0.0748,0.0661,0.0638,0.0371,0.0117,-0.0123,-0.0276,-0.0254,-0.0283,-0.043,-0.0537,-0.06,-0.0654,-0.0262,-0.0261,-0.0261,-0.0261,0,0.0332,0.0362,0.0421,0.0524,0.0594,0.0681,0.0758,0.0824,0.0866,0.0924,0.0984,0.0963,0.0713,0.0489,0.0151,-0.0017,-0.0342,-0.0253,-0.0424,-0.0484,-0.0543,-0.0631,-0.0241,-0.0257,-0.0257,-0.0258,-0.0258,-0.0258,0.038,0.0435,0.0517,0.0617,0.0701,0.0814,0.0902,0.099,0.1108,0.1219,0.1177,0.1205,0.086,0.0407,0.0131,-0.0322,-0.0344,-0.0456,-0.0535,-0.0588,-0.0646,-0.0241,-0.0284,-0.0284,-0.0285,-0.0285,-0.0285,0,0.0443,0.0508,0.0601,0.0726,0.0827,0.0862,0.1012,0.1112,0.1271,0.1377,0.1441,0.1331,0.09,0.0446,-0.0185,-0.0539,-0.0669,-0.0724,-0.0814,-0.0859,-0.0513,-0.0499,-0.0567,-0.0567,-0.0567,-0.0566,-0.0566,-0.0566,0.0482,0.0583,0.0632,0.0816,0.0903,0.1059,0.1157,0.131,0.143,0.1593,0.1651,0.1647,0.132,0.0166,-0.0642,-0.0827,-0.1074,-0.1114,-0.1267,-0.1041,-0.1023,-0.1006,-0.1012,-0.1187,-0.1188,-0.1566,-0.157,-0.1573]}],[{"header":{"parameterUnit":"m.s-1","parameterCategory":2,"la1":30.2991,"la2":30.254,"lo1":-89.0895,"lo2":-89.0444,"dy":0.0017,"dx":0.0017,"nx":28,"ny":28,"refTime":"2023-08-30T03:00:00:Z","depth":"2","parameterNumber":2,"parameterNumberName":"U-component_of_CURRENTS"},"data":[0,0,0,0,0,0,0,0,0,0,0,0,0,0,0,0,0,0,0,0,0,0,0,0,0,0,0,0,0,0,0,0,0,0,0,0,0,0,0,0,0,0,0,0,0,0,0,0,0,0,0,0,0,0,0,0,0,0,0.2331,0.2331,0,0.2346,0.2347,0.2347,0.2361,0.2361,0.2361,0.2361,0.2381,0.2382,0.2382,0,0,0,0,0,0,0,0,0,0,0,0,0,0.2286,0.2287,0.2331,0.2331,0.2331,0.2346,0.2347,0.2347,0.2361,0.2361,0.2361,0.2361,0.2381,0.2381,0.2382,0,0,0,0,0,0,0,0,0,0,0,0,0,0.2306,0.2288,0.2331,0.2339,0.234,0.2346,0.2347,0.2347,0.2361,0.2361,0.2361,0.2361,0.2381,0.2381,0.2382,0.2386,0,0,0.2384,0.2385,0,0,0,0,0,0,0,0,0.2305,0.2307,0.2338,0.2338,0.2339,0.235,0.2338,0.236,0.2361,0.2355,0.2361,0.2361,0.237,0.2372,0.2377,0.2387,0.2388,0.2384,0.2385,0.2385,0.2385,0,0,0,0,0,0,0,0.2303,0.2307,0.2339,0.2338,0.2339,0.2332,0.2335,0.2342,0.2363,0.2355,0.2356,0.2355,0.2371,0.2376,0.2377,0.2388,0.2384,0.2385,0.2386,0.2386,0.245,0.2451,0,0,0,0,0,0,0.23,0.2306,0.2338,0.2339,0.232,0.2333,0.2336,0.2348,0.2363,0.2365,0.2355,0.2356,0.2375,0.2376,0.2378,0.2421,0.2385,0.2386,0.2386,0.2448,0.245,0.2451,0,0,0,0,0,0,0.2299,0.2303,0.2338,0.232,0.2324,0.2333,0.2346,0.2348,0.2367,0.2363,0.2365,0.2373,0.2375,0.2377,0.2398,0.2421,0.2386,0.2387,0.2447,0.2449,0.2451,0.2483,0,0,0,0,0,0,0.2298,0.2303,0.2313,0.2321,0.2325,0.2353,0.2346,0.2349,0.2365,0.2366,0.2379,0.238,0.2375,0.2397,0.2399,0.2421,0.2388,0.2445,0.2448,0.245,0.2481,0.2486,0.2491,0,0,0,0,0,0.2296,0.2306,0.2314,0.2318,0.2338,0.2354,0.2356,0.2363,0.2366,0.238,0.2388,0.238,0.2413,0.2399,0.2401,0.2423,0.2444,0.2447,0.245,0.2478,0.2485,0.249,0,0,0,0,0,0,0.2286,0.2308,0.2317,0.2332,0.2349,0.2356,0.2369,0.2373,0.239,0.2395,0.2392,0.2394,0.2425,0.242,0.2404,0.245,0.2429,0.2433,0.2451,0.2457,0.2462,0.2468,0.2388,0,0,0,0,0,0.229,0.2309,0.2326,0.2339,0.2354,0.2367,0.2375,0.238,0.2392,0.2401,0.2408,0.2419,0.2437,0.2443,0.2457,0.2476,0.248,0.2494,0.2499,0.2503,0.2511,0.2536,0.2543,0.246,0.246,0.246,0,0,0.2288,0.2303,0.2313,0.2339,0.2357,0.2376,0.2373,0.2394,0.2409,0.24,0.2429,0.244,0.2448,0.2474,0.2487,0.2472,0.2531,0.2507,0.251,0.2515,0.2539,0.2547,0.2554,0.2462,0.2462,0.2462,0,0,0.2286,0.2315,0.2329,0.2348,0.2374,0.2389,0.24,0.242,0.2435,0.2456,0.2462,0.2486,0.2502,0.2516,0.2523,0.2565,0.2561,0.2572,0.2596,0.262,0.2627,0.2633,0.2652,0.266,0.2569,0.2569,0.2569,0,0.2277,0.2306,0.2333,0.2351,0.237,0.2399,0.2418,0.2439,0.246,0.2476,0.2471,0.2517,0.2523,0.2561,0.2577,0.2576,0.2588,0.2569,0.2626,0.2632,0.2638,0.2656,0.2664,0.2571,0.257,0.257,0.257,0,0.2289,0.2312,0.2327,0.2367,0.2389,0.2415,0.2448,0.2478,0.2498,0.2511,0.2556,0.2568,0.2594,0.2603,0.2601,0.2651,0.2646,0.2633,0.2608,0.2648,0.2665,0.2672,0.2573,0.2573,0.2572,0.2572,0,0,0.2255,0.2322,0.2324,0.2345,0.2404,0.2417,0.2467,0.2512,0.2543,0.2567,0.2604,0.2638,0.265,0.266,0.2669,0.2688,0.2737,0.268,0.268,0.2694,0.2794,0.2779,0.2785,0.2735,0.2736,0.2737,0.279,0,0.2255,0.2288,0.2327,0.2362,0.2387,0.2441,0.248,0.2521,0.2565,0.2609,0.2638,0.2676,0.2671,0.269,0.2713,0.2739,0.2759,0.2724,0.2757,0.2758,0.2736,0.2794,0.2592,0.2621,0.2797,0.2798,0.2799,0,0.2247,0.2273,0.2308,0.2366,0.2383,0.2411,0.2489,0.2527,0.2604,0.2636,0.2687,0.2714,0.2769,0.2748,0.2811,0.2792,0.2799,0.2807,0.2809,0.2789,0.2758,0.261,0.2628,0.2812,0.2811,0.281,0.2809,0,0.2201,0.2256,0.2285,0.2305,0.2376,0.2407,0.2454,0.2532,0.258,0.2663,0.2707,0.2764,0.2808,0.2831,0.2866,0.2842,0.2927,0.2889,0.2881,0.2879,0.2711,0.2693,0.2925,0.2925,0.2925,0.2925,0.2925,0,0.2185,0.2201,0.2266,0.2278,0.2316,0.2376,0.2432,0.2492,0.2588,0.264,0.2719,0.2777,0.2833,0.2891,0.2894,0.2929,0.2953,0.2904,0.29,0.2718,0.2701,0.2864,0.2856,0.2927,0.2927,0.2926,0.2926,0,0.2127,0.2175,0.2204,0.2273,0.2295,0.2321,0.2422,0.2459,0.2565,0.2644,0.2676,0.2808,0.2886,0.2938,0.299,0.2973,0.2994,0.2993,0.2782,0.2753,0.2917,0.291,0.2982,0.2982,0.2982,0.2982,0.2982,0,0.2103,0.2112,0.2178,0.2194,0.2228,0.228,0.2313,0.243,0.248,0.2652,0.2681,0.2816,0.288,0.2982,0.2985,0.3004,0.3024,0.2812,0.2728,0.2938,0.2927,0.292,0.2913,0.2513,0.2509,0.2506,0.2503,0,0.2049,0.2076,0.2098,0.2132,0.2166,0.2202,0.2267,0.2308,0.2439,0.2528,0.2648,0.2727,0.2854,0.2811,0.2867,0.2839,0.2795,0.2752,0.3026,0.2543,0.2504,0.249,0.2497,0.2476,0.2479,0.2481,0.2482,0.2483,0.2001,0.2004,0.2036,0.2061,0.2089,0.2109,0.2117,0.2192,0.2271,0.2372,0.2518,0.2573,0.2638,0.2639,0.2575,0.2532,0.2709,0.2571,0.2577,0.2587,0.2537,0.2501,0.2463,0.2465,0.2467,0.2469,0.2471,0,0.194,0.195,0.1962,0.1982,0.1969,0.2025,0.2063,0.2056,0.2097,0.2223,0.2313,0.2204,0.2214,0.2265,0.2178,0.2196,0.2127,0.209,0.1975,0.2008,0.2036,0.1951,0.1725,0.1722,0.1719,0.1717,0,0,0.1909,0.1894,0.1898,0.1855,0.1865,0.1837,0.1841,0.1846,0.1909,0.1927,0.1956,0.2139,0.2241,0.196,0.1939,0.1817,0.1885,0.1747,0.2359,0.226,0.2283,0.2346,0.2259,0,0,0,0,0]},{"header":{"parameterUnit":"m.s-1","parameterCategory":2,"la1":30.2991,"la2":30.254,"lo1":-89.0895,"lo2":-89.0444,"dy":0.0017,"dx":0.0017,"nx":28,"ny":28,"refTime":"2023-08-30T03:00:00:Z","depth":"2","parameterNumber":3,"parameterNumberName":"V-component_of_CURRENTS"},"data":[0,0,0,0,0,0,0,0,0,0,0,0,0,0,0,0,0,0,0,0,0,0,0,0,0,0,0,0,0,0,0,0,0,0,0,0,0,0,0,0,0,0,0,0,0,0,0,0,0,0,0,0,0,0,0,0,0,0,0.0107,0.0107,0,0.0065,0.0064,0.0063,0.0019,0.0019,0.0019,0.0018,-0.0058,-0.006,-0.0062,0,0,0,0,0,0,0,0,0,0,0,0,0,0.0112,0.0112,0.0107,0.0107,0.0106,0.0065,0.0064,0.0063,0.0019,0.0019,0.0019,0.0018,-0.0058,-0.006,-0.0062,0,0,0,0,0,0,0,0,0,0,0,0,0,0.009,0.0112,0.0107,0.0082,0.008,0.0065,0.0064,0.0063,0.0019,0.0019,0.0019,0.0018,-0.0057,-0.006,-0.0062,-0.0071,0,0,-0.0071,-0.0072,0,0,0,0,0,0,0,0,0.0092,0.009,0.0086,0.0084,0.0081,0.005,0.0038,0.0018,0.0019,0.0038,0.0018,0.0018,-0.0023,-0.0028,-0.004,-0.0075,-0.0078,-0.0071,-0.0073,-0.0074,-0.0074,0,0,0,0,0,0,0,0.0093,0.0091,0.0086,0.0086,0.0083,0.0061,0.0057,0.0033,0.0007,0.0037,0.0034,0.0036,-0.0025,-0.0037,-0.0042,-0.0079,-0.0071,-0.0073,-0.0075,-0.0076,-0.013,-0.013,0,0,0,0,0,0,0.0108,0.0093,0.0088,0.0085,0.009,0.0062,0.0057,0.0057,0.0008,0.0002,0.0036,0.0034,-0.0033,-0.0039,-0.0045,-0.0052,-0.0074,-0.0076,-0.0078,-0.013,-0.013,-0.013,0,0,0,0,0,0,0.0109,0.0108,0.0089,0.0091,0.0088,0.0063,0.0063,0.0057,0.0044,0.0009,0.0001,0.003,-0.0033,-0.0041,-0.0062,-0.0056,-0.0077,-0.008,-0.013,-0.013,-0.013,-0.007,0,0,0,0,0,0,0.0109,0.0109,0.0111,0.0092,0.0088,0.0088,0.0063,0.0057,0.0048,0.0044,0.0001,-0.0007,-0.0034,-0.0057,-0.0064,-0.006,-0.0082,-0.0131,-0.013,-0.013,-0.0073,-0.0068,-0.0064,0,0,0,0,0,0.0109,0.0123,0.0112,0.0111,0.0094,0.0089,0.0085,0.0063,0.0048,0.0048,0.0018,-0.0005,-0.0061,-0.0059,-0.0068,-0.0064,-0.0131,-0.013,-0.013,-0.0074,-0.0069,-0.0064,0,0,0,0,0,0,0.0129,0.0119,0.0107,0.0116,0.0106,0.0083,0.0082,0.0067,0.0043,0.0039,-0.0002,-0.0011,-0.0028,-0.0054,-0.0051,-0.0079,-0.01,-0.0101,-0.0055,-0.005,-0.0046,-0.0028,-0.0084,0,0,0,0,0,0.0135,0.0139,0.0125,0.0132,0.0128,0.0103,0.0098,0.0087,0.0066,0.0055,0.0023,-0.0008,-0.0033,-0.0047,-0.0074,-0.0086,-0.0113,-0.009,-0.0086,-0.0082,-0.0073,-0.011,-0.0108,-0.0128,-0.0128,-0.0128,0,0,0.0144,0.014,0.0142,0.0136,0.0122,0.0129,0.0098,0.0098,0.0102,0.0051,0.0039,0.0005,-0.0034,-0.0049,-0.0059,-0.0068,-0.0091,-0.0082,-0.0078,-0.0071,-0.0109,-0.0107,-0.0106,-0.0128,-0.0128,-0.0128,0,0,0.0174,0.016,0.0176,0.0168,0.0161,0.015,0.0154,0.0133,0.0119,0.0108,0.0071,0.0043,0.0004,-0.0022,-0.0039,-0.0028,-0.0068,-0.004,-0.0003,-0.0039,-0.0037,-0.0036,-0.0065,-0.0067,-0.0037,-0.0037,-0.0037,0,0.0187,0.0203,0.018,0.0192,0.0195,0.0164,0.0185,0.0168,0.0144,0.0136,0.0114,0.0054,0.0019,0.0002,0.0004,-0.0018,-0.0043,-0.0017,-0.0032,-0.0032,-0.0032,-0.0062,-0.0065,-0.0034,-0.0034,-0.0034,-0.0035,0,0.0226,0.0237,0.0245,0.0251,0.0252,0.0263,0.0245,0.0236,0.0214,0.0195,0.0168,0.0116,0.0082,0.0063,0.0036,0.0021,0.0001,-0.0023,-0.0042,-0.0026,-0.0059,-0.0063,-0.003,-0.0031,-0.0032,-0.0032,0,0,0.0263,0.0273,0.0276,0.0289,0.0284,0.0294,0.0297,0.0295,0.03,0.0257,0.0254,0.0199,0.0164,0.0142,0.0098,0.0065,0.0038,0.0027,0.0023,0.0005,-0.0037,-0.0048,-0.0054,0.001,0.001,0.0009,-0.0059,0,0.0302,0.0345,0.0338,0.0377,0.0397,0.0371,0.0381,0.0372,0.0348,0.0334,0.0272,0.0251,0.0197,0.0181,0.0139,0.0065,0.003,0.0059,-0.0055,-0.0058,-0.0064,-0.0058,-0.0023,-0.0081,-0.0063,-0.0064,-0.0064,0,0.0346,0.0371,0.042,0.0444,0.045,0.0469,0.0479,0.0483,0.045,0.0431,0.0392,0.0339,0.0286,0.0235,0.0121,0.0142,0.0062,-0.0001,-0.0006,-0.0038,-0.0076,-0.0095,-0.009,-0.0072,-0.0071,-0.0071,-0.007,0,0.0392,0.0428,0.0473,0.0479,0.0502,0.0517,0.0526,0.0513,0.0528,0.0491,0.0495,0.0413,0.0381,0.027,0.0139,0.0128,0.001,-0.0024,-0.011,-0.0112,-0.0114,-0.0115,-0.0105,-0.0105,-0.0105,-0.0105,-0.0105,0,0.0439,0.0471,0.0498,0.0521,0.0579,0.0569,0.0618,0.0609,0.0608,0.0641,0.0551,0.0555,0.0388,0.0298,0.0166,0.0023,0.0029,-0.0098,-0.0129,-0.0093,-0.0091,-0.0111,-0.011,-0.0107,-0.0107,-0.0106,-0.0106,0,0.0482,0.0496,0.055,0.0586,0.0604,0.0643,0.0691,0.0719,0.071,0.0747,0.0742,0.0662,0.0546,0.0374,0.0195,0.0073,-0.0073,-0.0128,-0.007,-0.0093,-0.018,-0.0176,-0.0231,-0.0232,-0.0233,-0.0233,-0.0234,0,0.0507,0.0541,0.0604,0.0642,0.0662,0.0718,0.076,0.0773,0.0814,0.0822,0.085,0.075,0.0702,0.0432,0.0191,-0.004,-0.0074,-0.0159,-0.0178,-0.0168,-0.0192,-0.0187,-0.0182,-0.0161,-0.0161,-0.0161,-0.016,0,0.0555,0.0576,0.0622,0.0706,0.0762,0.0833,0.0894,0.0947,0.0971,0.1005,0.1033,0.0994,0.074,0.0508,0.0184,0.0034,-0.0121,-0.0165,-0.0171,-0.013,-0.0106,-0.0128,-0.0125,-0.016,-0.016,-0.016,-0.016,-0.016,0.0587,0.0631,0.0693,0.0774,0.0844,0.0939,0.101,0.1076,0.1161,0.1221,0.1177,0.1131,0.0856,0.0451,0.0164,-0.013,-0.0117,-0.0212,-0.021,-0.0209,-0.0185,-0.0163,-0.0223,-0.0223,-0.0223,-0.0224,-0.0224,0,0.0625,0.0676,0.0752,0.0852,0.0937,0.0972,0.1096,0.1169,0.128,0.1323,0.1345,0.1104,0.083,0.0512,0.0074,-0.0188,-0.0203,-0.0262,-0.0226,-0.0224,-0.0223,-0.0199,-0.0241,-0.0242,-0.0243,-0.0244,0,0,0.0645,0.0723,0.0767,0.0914,0.0988,0.1119,0.12,0.1307,0.1374,0.1424,0.14,0.133,0.094,0.062,0.0257,0.0003,-0.0046,-0.0038,0.0009,0.0098,0.0102,-0.0157,-0.0112,0,0,0,0,0]}],[{"header":{"parameterUnit":"m.s-1","parameterCategory":2,"la1":30.2991,"la2":30.254,"lo1":-89.0895,"lo2":-89.0444,"dy":0.0017,"dx":0.0017,"nx":28,"ny":28,"refTime":"2023-08-30T03:00:00:Z","depth":"4","parameterNumber":2,"parameterNumberName":"U-component_of_CURRENTS"},"data":[0,0,0,0,0,0,0,0,0,0,0,0,0,0,0,0,0,0,0,0,0,0,0,0,0,0,0,0,0,0,0,0,0,0,0,0,0,0,0,0,0,0,0,0,0,0,0,0,0,0,0,0,0,0,0,0,0,0,0.1405,0.1406,0,0.1479,0.148,0.148,0.1533,0.1534,0.1535,0.1535,0.1611,0.1612,0.1614,0,0,0,0,0,0,0,0,0,0,0,0,0,0.1321,0.1322,0.1405,0.1407,0.1408,0.1479,0.148,0.148,0.1533,0.1534,0.1535,0.1535,0.161,0.1612,0.1614,0,0,0,0,0,0,0,0,0,0,0,0,0,0.1371,0.1323,0.1405,0.1444,0.1448,0.1479,0.148,0.1481,0.1533,0.1534,0.1535,0.1536,0.161,0.1612,0.1614,0.1608,0,0,0.1621,0.1622,0,0,0,0,0,0,0,0,0.1368,0.1373,0.1437,0.1441,0.1446,0.15,0.1478,0.1524,0.1533,0.1499,0.1535,0.1536,0.1575,0.158,0.1588,0.1612,0.1615,0.1621,0.1622,0.1623,0.1624,0,0,0,0,0,0,0,0.1364,0.1371,0.1432,0.1438,0.1444,0.1462,0.1469,0.1487,0.1529,0.1502,0.1506,0.1517,0.1577,0.1586,0.1591,0.1616,0.1621,0.1623,0.1624,0.1625,0.1747,0.1749,0,0,0,0,0,0,0.1358,0.1367,0.143,0.1435,0.1411,0.1463,0.1471,0.148,0.1529,0.1538,0.1517,0.152,0.1582,0.1588,0.1594,0.1682,0.1623,0.1625,0.1626,0.1745,0.1747,0.175,0,0,0,0,0,0,0.1356,0.1363,0.1427,0.1405,0.1414,0.1463,0.1473,0.1481,0.1523,0.154,0.1549,0.1555,0.1583,0.1591,0.1647,0.1682,0.1626,0.1628,0.1743,0.1746,0.1748,0.18,0,0,0,0,0,0,0.1353,0.1361,0.1379,0.1404,0.1415,0.1465,0.1472,0.1482,0.1528,0.1533,0.1575,0.1581,0.1584,0.1644,0.1649,0.1684,0.163,0.174,0.1744,0.1748,0.1796,0.1804,0.1812,0,0,0,0,0,0.135,0.1364,0.1379,0.1388,0.1433,0.1466,0.1474,0.151,0.1529,0.1551,0.1589,0.1582,0.1671,0.1647,0.1653,0.1689,0.1738,0.1743,0.1747,0.1792,0.1803,0.1812,0,0,0,0,0,0,0.1338,0.1372,0.1388,0.1414,0.1449,0.1477,0.1505,0.1528,0.1574,0.1591,0.1605,0.1614,0.1678,0.1678,0.1652,0.1737,0.1704,0.171,0.1736,0.1746,0.1754,0.1758,0.1631,0,0,0,0,0,0.1342,0.1365,0.1398,0.1424,0.1443,0.148,0.1504,0.153,0.1568,0.159,0.1622,0.1659,0.1694,0.1717,0.1745,0.1788,0.1788,0.1817,0.1825,0.1831,0.184,0.187,0.1881,0.1764,0.1764,0.1764,0,0,0.1344,0.1368,0.1382,0.1424,0.1455,0.1489,0.1498,0.1545,0.1585,0.159,0.1664,0.169,0.1713,0.1767,0.1795,0.1776,0.1866,0.1837,0.1842,0.1848,0.1876,0.1887,0.1897,0.1767,0.1766,0.1766,0,0,0.1352,0.1384,0.1406,0.1438,0.1491,0.1515,0.1536,0.1586,0.1624,0.1687,0.1707,0.1758,0.1809,0.1835,0.1852,0.192,0.1908,0.1933,0.1975,0.2004,0.2013,0.2021,0.2036,0.2045,0.1935,0.1935,0.1935,0,0.1357,0.1389,0.1419,0.1451,0.1488,0.1531,0.1569,0.161,0.1676,0.1713,0.1721,0.1819,0.184,0.1903,0.1934,0.1937,0.1948,0.1933,0.2013,0.2021,0.2028,0.2042,0.2051,0.1938,0.1937,0.1937,0.1937,0,0.1376,0.1416,0.1436,0.1492,0.1532,0.1576,0.1631,0.1685,0.1736,0.1774,0.1861,0.1895,0.1952,0.1969,0.1976,0.2047,0.2035,0.2018,0.1983,0.2043,0.2053,0.2062,0.1942,0.1941,0.194,0.1939,0,0,0.1354,0.1434,0.1446,0.1481,0.1564,0.1593,0.1671,0.1745,0.18,0.1868,0.1938,0.2008,0.2033,0.2055,0.2071,0.2101,0.2166,0.2092,0.2092,0.2098,0.2229,0.2102,0.2099,0.2165,0.2167,0.2169,0.2214,0,0.1368,0.1426,0.1472,0.1544,0.158,0.1652,0.1716,0.1791,0.1859,0.1935,0.1989,0.206,0.2063,0.21,0.2135,0.2164,0.2193,0.2155,0.2178,0.2179,0.2051,0.2106,0.2175,0.2221,0.2223,0.2224,0.2225,0,0.1371,0.1415,0.1481,0.1573,0.1598,0.1655,0.1767,0.1829,0.1938,0.1993,0.2071,0.2114,0.2195,0.2176,0.2254,0.2233,0.2243,0.2251,0.2253,0.2121,0.2068,0.215,0.2241,0.2239,0.2238,0.2237,0.2236,0,0.1328,0.1421,0.1476,0.1509,0.1617,0.1677,0.1745,0.1854,0.1922,0.2037,0.2098,0.218,0.2242,0.2273,0.2311,0.2292,0.2376,0.2342,0.2233,0.2224,0.23,0.2291,0.2388,0.2388,0.2388,0.2387,0.2387,0,0.1311,0.1359,0.1467,0.1497,0.1578,0.1662,0.1759,0.1838,0.1959,0.2026,0.2129,0.2189,0.2274,0.2331,0.2338,0.2317,0.2399,0.225,0.2231,0.2321,0.2314,0.2306,0.2296,0.2389,0.2389,0.2388,0.2388,0,0.1251,0.1321,0.139,0.1514,0.1559,0.1619,0.1769,0.1826,0.1954,0.2048,0.2093,0.2228,0.2291,0.2352,0.2405,0.2341,0.2335,0.2305,0.241,0.2394,0.2155,0.2147,0.2175,0.2171,0.2167,0.2164,0.2162,0,0.122,0.125,0.1386,0.1432,0.1498,0.1601,0.1666,0.1809,0.1868,0.2045,0.2075,0.2201,0.2264,0.2244,0.2312,0.2312,0.2286,0.2263,0.2196,0.2157,0.2136,0.2133,0.2131,0.2156,0.2156,0.2155,0.2154,0,0.1167,0.1229,0.1288,0.138,0.146,0.1532,0.1638,0.1674,0.182,0.1953,0.2008,0.205,0.212,0.2155,0.2181,0.2174,0.2264,0.2226,0.2232,0.2169,0.2135,0.2117,0.2118,0.2142,0.2144,0.2145,0.2145,0,0.1135,0.1161,0.1245,0.1315,0.14,0.1438,0.1507,0.1576,0.1655,0.184,0.1848,0.1978,0.2091,0.2085,0.2106,0.2096,0.2055,0.1973,0.1991,0.2005,0.1929,0.186,0.1774,0,0,0,0,0,0.1095,0.1116,0.1173,0.1241,0.1312,0.1365,0.1472,0.154,0.1676,0.1667,0.1755,0.1807,0.185,0.1925,0.1879,0.2031,0.2063,0.1968,0.1978,0.2076,0.209,0.2016,0,0,0,0,0,0,0.1074,0.1126,0.1144,0.1155,0.1183,0.1252,0.1315,0.1408,0.1415,0.1557,0.1595,0.1699,0.1773,0.1857,0.1846,0.1865,0.1833,0.2051,0.2046,0.2068,0.2081,0.2092,0.2021,0,0,0,0,0]},{"header":{"parameterUnit":"m.s-1","parameterCategory":2,"la1":30.2991,"la2":30.254,"lo1":-89.0895,"lo2":-89.0444,"dy":0.0017,"dx":0.0017,"nx":28,"ny":28,"refTime":"2023-08-30T03:00:00:Z","depth":"4","parameterNumber":3,"parameterNumberName":"V-component_of_CURRENTS"},"data":[0,0,0,0,0,0,0,0,0,0,0,0,0,0,0,0,0,0,0,0,0,0,0,0,0,0,0,0,0,0,0,0,0,0,0,0,0,0,0,0,0,0,0,0,0,0,0,0,0,0,0,0,0,0,0,0,0,0,0.0201,0.0201,0,0.0172,0.0171,0.0171,0.0152,0.0152,0.0152,0.0152,0.0107,0.0106,0.0105,0,0,0,0,0,0,0,0,0,0,0,0,0,0.0211,0.0211,0.0201,0.0201,0.0201,0.0172,0.0171,0.0171,0.0152,0.0152,0.0152,0.0152,0.0108,0.0106,0.0105,0,0,0,0,0,0,0,0,0,0,0,0,0,0.0196,0.0211,0.0201,0.0188,0.0187,0.0172,0.0171,0.0171,0.0152,0.0152,0.0152,0.0152,0.0108,0.0106,0.0105,0.0095,0,0,0.01,0.0099,0,0,0,0,0,0,0,0,0.0197,0.0196,0.0191,0.0189,0.0188,0.0166,0.0158,0.0145,0.0152,0.0164,0.0152,0.0152,0.0126,0.0123,0.0117,0.0093,0.0091,0.0099,0.0098,0.0098,0.0097,0,0,0,0,0,0,0,0.0198,0.0197,0.0189,0.019,0.0189,0.0174,0.0172,0.0156,0.0145,0.0163,0.0162,0.016,0.0125,0.0118,0.0115,0.0091,0.0099,0.0098,0.0097,0.0096,0.0053,0.0053,0,0,0,0,0,0,0.0205,0.0198,0.019,0.0188,0.0193,0.0174,0.0171,0.0172,0.0145,0.0142,0.016,0.0159,0.0121,0.0117,0.0114,0.0107,0.0098,0.0096,0.0095,0.0053,0.0053,0.0053,0,0,0,0,0,0,0.0206,0.0205,0.0191,0.0193,0.019,0.0174,0.0175,0.0172,0.0169,0.0143,0.0139,0.0161,0.0121,0.0116,0.0103,0.0105,0.0095,0.0094,0.0053,0.0053,0.0053,0.009,0,0,0,0,0,0,0.0206,0.0205,0.0209,0.0193,0.019,0.0189,0.0175,0.0171,0.0168,0.0167,0.0143,0.0138,0.0121,0.0105,0.0101,0.0103,0.0092,0.0053,0.0053,0.0053,0.0089,0.0091,0.0093,0,0,0,0,0,0.0206,0.0215,0.0209,0.0208,0.0196,0.0189,0.0186,0.0174,0.0168,0.017,0.0152,0.0139,0.0101,0.0104,0.0099,0.01,0.0053,0.0053,0.0053,0.0088,0.0091,0.0093,0,0,0,0,0,0,0.0221,0.0214,0.0207,0.0213,0.0204,0.0186,0.0188,0.0178,0.0165,0.0166,0.014,0.0134,0.0122,0.0105,0.011,0.0086,0.0074,0.0073,0.0103,0.0105,0.0107,0.012,0.0091,0,0,0,0,0,0.0226,0.0233,0.0219,0.0224,0.0222,0.0205,0.0201,0.0194,0.018,0.0175,0.0156,0.0135,0.0116,0.0107,0.0089,0.0078,0.0055,0.0073,0.0075,0.0077,0.0083,0.0046,0.0045,0.0052,0.0052,0.0052,0,0,0.0233,0.0231,0.0234,0.0228,0.022,0.0224,0.0203,0.0203,0.0204,0.0172,0.0167,0.0143,0.0115,0.0102,0.0095,0.0089,0.0063,0.0077,0.0079,0.0084,0.0046,0.0045,0.0044,0.0052,0.0052,0.0052,0,0,0.0254,0.0248,0.0261,0.0255,0.0249,0.0241,0.0244,0.0229,0.022,0.0212,0.0187,0.0165,0.014,0.0117,0.0102,0.0104,0.0076,0.0097,0.0118,0.0082,0.0081,0.008,0.0052,0.0048,0.0098,0.0098,0.0098,0,0.0262,0.0276,0.0262,0.0271,0.0273,0.0253,0.0266,0.0253,0.0235,0.0229,0.0218,0.0172,0.0147,0.0125,0.0124,0.0109,0.0087,0.0113,0.0085,0.0083,0.0082,0.0053,0.0048,0.0099,0.0099,0.0099,0.0099,0,0.0289,0.0299,0.0306,0.0312,0.0312,0.0321,0.0305,0.0299,0.0287,0.0272,0.0249,0.0208,0.0182,0.0166,0.0146,0.0122,0.0109,0.0093,0.0082,0.0084,0.0053,0.0047,0.0102,0.0101,0.0101,0.01,0,0,0.031,0.0324,0.0326,0.0339,0.0337,0.0342,0.0343,0.0338,0.0341,0.0308,0.0303,0.0257,0.0232,0.0214,0.0179,0.0144,0.011,0.0118,0.0115,0.0096,0.0034,0.0029,0.0022,0.0088,0.0087,0.0087,0.0018,0,0.0336,0.0367,0.0365,0.0395,0.041,0.0395,0.04,0.039,0.0373,0.036,0.0308,0.0292,0.0251,0.024,0.0197,0.0135,0.0097,0.013,0.003,0.0028,0.0027,0.0016,0.0084,0.0014,0.0012,0.0011,0.0011,0,0.0361,0.0381,0.042,0.0443,0.0448,0.0464,0.0473,0.0473,0.0444,0.0427,0.0392,0.0354,0.0301,0.0266,0.0158,0.0182,0.0114,0.006,0.0056,0.0035,0.0012,0.0009,0.0001,0.0001,0.0002,0.0003,0.0003,0,0.0387,0.0418,0.0456,0.0463,0.0484,0.05,0.0509,0.0497,0.0506,0.0471,0.0473,0.0398,0.0369,0.0272,0.0162,0.016,0.0042,0.0022,-0.0049,-0.005,-0.004,-0.0038,-0.0057,-0.0057,-0.0057,-0.0057,-0.0057,0,0.0413,0.0441,0.0476,0.0494,0.0543,0.054,0.058,0.057,0.0567,0.0582,0.0515,0.0505,0.0369,0.0286,0.0178,0.0052,0.0051,-0.0045,-0.007,-0.0023,-0.0019,-0.0044,-0.0042,-0.0059,-0.0059,-0.0058,-0.0058,0,0.0434,0.0454,0.05,0.0539,0.0559,0.0593,0.0638,0.0656,0.0649,0.0665,0.066,0.0584,0.0473,0.0334,0.0173,0.0082,-0.0044,-0.0091,-0.0022,-0.0042,-0.0116,-0.0111,-0.0175,-0.0176,-0.0177,-0.0177,-0.0178,0,0.0446,0.0474,0.0539,0.0572,0.0597,0.0648,0.0683,0.0697,0.072,0.0713,0.0722,0.0631,0.056,0.034,0.0181,-0.0029,-0.0063,-0.0127,-0.0132,-0.0111,-0.0129,-0.0122,-0.0117,-0.0179,-0.0179,-0.0179,-0.0179,0,0.0466,0.0494,0.0533,0.0606,0.0658,0.0718,0.0768,0.0794,0.0807,0.0807,0.0774,0.0658,0.053,0.0346,0.018,0.0028,-0.0085,-0.0135,-0.0135,-0.014,-0.0117,-0.0132,-0.0125,-0.0182,-0.0181,-0.0181,-0.0181,0,0.0479,0.0511,0.0565,0.063,0.0701,0.0764,0.079,0.0819,0.0845,0.0836,0.0823,0.0684,0.0602,0.0375,0.0225,0.0072,0.0028,-0.0023,-0.0029,-0.0029,0.0028,0.0081,0.0056,0,0,0,0,0,0.0483,0.0518,0.0579,0.0651,0.0723,0.077,0.0837,0.0855,0.0877,0.0861,0.0845,0.0725,0.05,0.0406,0.0251,0.0196,-0.0009,0.0009,-0.0072,-0.0195,-0.0192,-0.0152,0,0,0,0,0,0,0.0483,0.0538,0.0574,0.0661,0.0713,0.0797,0.0845,0.0859,0.0852,0.0849,0.0735,0.0683,0.0466,0.0588,0.0248,0.0201,0.0128,-0.0094,-0.0097,-0.0196,-0.0194,-0.0192,-0.0149,0,0,0,0,0]}]]